| time (UTC) | temp F | wind direction | speed MPH | gust MPH | rain 1hr in | rain 24hr in | rain mn in | humidity % | barometer mb |
| 20260505005431 | 60 | 0 | 0.0 | 0.0 | 0.00 | 0.00 | 0.00 | 49 | 1006.2 |
| 20260505004931 | 60 | 0 | 0.0 | 0.0 | 0.00 | 0.00 | 0.00 | 47 | 1006.1 |
| 20260505004431 | 61 | 0 | 0.0 | 0.0 | 0.00 | 0.00 | 0.00 | 47 | 1006.1 |
| 20260505004151 | 61 | 0 | 0.0 | 0.0 | 0.00 | 0.00 | 0.00 | 49 | 1006.0 |
| 20260505003430 | 62 | 0 | 0.0 | 0.0 | 0.00 | 0.00 | 0.00 | 47 | 1005.9 |
| 20260505002930 | 62 | 0 | 0.0 | 0.0 | 0.00 | 0.00 | 0.00 | 46 | 1005.8 |
| 20260505002429 | 63 | 0 | 0.0 | 0.0 | 0.00 | 0.00 | 0.00 | 44 | 1005.7 |
| 20260505002412 | 63 | 0 | 0.0 | 2.0 | 0.00 | 0.00 | 0.00 | 43 | 1005.6 |
| 20260505001430 | 64 | 0 | 0.0 | 2.0 | 0.00 | 0.00 | 0.00 | 42 | 1005.5 |
| 20260505000930 | 64 | 0 | 0.0 | 2.0 | 0.00 | 0.00 | 0.00 | 40 | 1005.4 |
| 20260505000430 | 65 | 0 | 0.0 | 2.0 | 0.00 | 0.00 | 0.00 | 40 | 1005.3 |
| 20260504235930 | 66 | 0 | 0.0 | 2.0 | 0.00 | 0.00 | 0.00 | 39 | 1005.3 |
| 20260504235431 | 66 | 0 | 0.0 | 1.0 | 0.00 | 0.00 | 0.00 | 38 | 1005.2 |
| 20260504235408 | 67 | 0 | 0.0 | 2.0 | 0.00 | 0.00 | 0.00 | 35 | 1005.1 |
| 20260504234429 | 67 | 0 | 0.0 | 3.0 | 0.00 | 0.00 | 0.00 | 36 | 1005.1 |
| 20260504233930 | 68 | 0 | 1.0 | 3.0 | 0.00 | 0.00 | 0.00 | 35 | 1005.1 |
| 20260504233914 | 68 | 351 | 1.0 | 4.0 | 0.00 | 0.00 | 0.00 | 35 | 1005.1 |
| 20260504232930 | 68 | 0 | 1.0 | 4.0 | 0.00 | 0.00 | 0.00 | 34 | 1005.0 |
| 20260504232430 | 69 | 216 | 1.0 | 4.0 | 0.00 | 0.00 | 0.00 | 34 | 1005.0 |
| 20260504231930 | 69 | 315 | 1.0 | 3.0 | 0.00 | 0.00 | 0.00 | 33 | 1004.9 |
| 20260504231430 | 69 | 0 | 1.0 | 4.0 | 0.00 | 0.00 | 0.00 | 32 | 1004.8 |
| 20260504230943 | 70 | 0 | 1.0 | 4.0 | 0.00 | 0.00 | 0.00 | 33 | 1004.7 |
| 20260504230430 | 70 | 177 | 1.0 | 4.0 | 0.00 | 0.00 | 0.00 | 32 | 1004.7 |
| 20260504225930 | 70 | 202 | 2.0 | 9.0 | 0.00 | 0.00 | 0.00 | 31 | 1004.6 |
| 20260504225430 | 70 | 229 | 3.0 | 9.0 | 0.00 | 0.00 | 0.00 | 31 | 1004.5 |
| 20260504225148 | 71 | 313 | 2.0 | 9.0 | 0.00 | 0.00 | 0.00 | 31 | 1004.5 |
| 20260504224653 | 71 | 0 | 2.0 | 8.0 | 0.00 | 0.00 | 0.00 | 31 | 1004.5 |
| 20260504223930 | 71 | 315 | 3.0 | 13.0 | 0.00 | 0.00 | 0.00 | 30 | 1004.4 |
| 20260504223911 | 71 | 161 | 3.0 | 13.0 | 0.00 | 0.00 | 0.00 | 30 | 1004.4 |
| 20260504222930 | 71 | 211 | 2.0 | 8.0 | 0.00 | 0.00 | 0.00 | 30 | 1004.3 |
| 20260504222431 | 71 | 190 | 2.0 | 8.0 | 0.00 | 0.00 | 0.00 | 31 | 1004.3 |
| 20260504221930 | 71 | 304 | 2.0 | 9.0 | 0.00 | 0.00 | 0.00 | 31 | 1004.4 |
| 20260504221430 | 71 | 309 | 3.0 | 9.0 | 0.00 | 0.00 | 0.00 | 30 | 1004.3 |
| 20260504220930 | 71 | 234 | 4.0 | 15.0 | 0.00 | 0.00 | 0.00 | 30 | 1004.3 |
| 20260504220429 | 71 | 285 | 3.0 | 15.0 | 0.00 | 0.00 | 0.00 | 30 | 1004.3 |
| 20260504220413 | 72 | 295 | 2.0 | 9.0 | 0.00 | 0.00 | 0.00 | 30 | 1004.4 |
| 20260504215430 | 72 | 65 | 3.0 | 9.0 | 0.00 | 0.00 | 0.00 | 30 | 1004.4 |
| 20260504214930 | 72 | 276 | 3.0 | 9.0 | 0.00 | 0.00 | 0.00 | 29 | 1004.3 |
| 20260504214430 | 72 | 344 | 3.0 | 9.0 | 0.00 | 0.00 | 0.00 | 30 | 1004.3 |
| 20260504213929 | 72 | 207 | 4.0 | 11.0 | 0.00 | 0.00 | 0.00 | 29 | 1004.2 |
| 20260504213429 | 72 | 172 | 3.0 | 11.0 | 0.00 | 0.00 | 0.00 | 30 | 1004.2 |
| 20260504213406 | 71 | 160 | 4.0 | 18.0 | 0.00 | 0.00 | 0.00 | 30 | 1004.1 |
| 20260504212430 | 71 | 201 | 4.0 | 18.0 | 0.00 | 0.00 | 0.00 | 31 | 1004.2 |
| 20260504211930 | 71 | 198 | 3.0 | 10.0 | 0.00 | 0.00 | 0.00 | 30 | 1004.3 |
| 20260504211430 | 71 | 161 | 3.0 | 8.0 | 0.00 | 0.00 | 0.00 | 31 | 1004.4 |
| 20260504210931 | 72 | 154 | 4.0 | 9.0 | 0.00 | 0.00 | 0.00 | 30 | 1004.3 |
| 20260504210430 | 72 | 15 | 4.0 | 9.0 | 0.00 | 0.00 | 0.00 | 30 | 1004.3 |
| 20260504205930 | 72 | 279 | 4.0 | 14.0 | 0.00 | 0.00 | 0.00 | 30 | 1004.2 |
| 20260504205430 | 72 | 51 | 6.0 | 15.0 | 0.00 | 0.00 | 0.00 | 30 | 1004.2 |
| 20260504204931 | 72 | 317 | 5.0 | 15.0 | 0.00 | 0.00 | 0.00 | 29 | 1004.2 |
| 20260504204430 | 72 | 0 | 4.0 | 12.0 | 0.00 | 0.00 | 0.00 | 30 | 1004.2 |
| 20260504203930 | 72 | 325 | 4.0 | 11.0 | 0.00 | 0.00 | 0.00 | 30 | 1004.3 |
| 20260504203430 | 71 | 280 | 4.0 | 11.0 | 0.00 | 0.00 | 0.00 | 29 | 1004.3 |
| 20260504203406 | 71 | 341 | 3.0 | 8.0 | 0.00 | 0.00 | 0.00 | 31 | 1004.3 |
| 20260504202430 | 71 | 53 | 3.0 | 14.0 | 0.00 | 0.00 | 0.00 | 31 | 1004.3 |
| 20260504201930 | 71 | 303 | 4.0 | 14.0 | 0.00 | 0.00 | 0.00 | 29 | 1004.3 |
| 20260504201430 | 71 | 147 | 3.0 | 10.0 | 0.00 | 0.00 | 0.00 | 30 | 1004.3 |
| 20260504201152 | 71 | 317 | 3.0 | 9.0 | 0.00 | 0.00 | 0.00 | 30 | 1004.3 |
| 20260504200429 | 71 | 332 | 3.0 | 8.0 | 0.00 | 0.00 | 0.00 | 31 | 1004.3 |
| 20260504195930 | 71 | 276 | 4.0 | 10.0 | 0.00 | 0.00 | 0.00 | 31 | 1004.4 |
| 20260504195431 | 70 | 221 | 4.0 | 10.0 | 0.00 | 0.00 | 0.00 | 30 | 1004.4 |
| 20260504194929 | 70 | 348 | 3.0 | 8.0 | 0.00 | 0.00 | 0.00 | 31 | 1004.4 |
| 20260504194430 | 70 | 192 | 3.0 | 9.0 | 0.00 | 0.00 | 0.00 | 31 | 1004.4 |
| 20260504193929 | 70 | 321 | 3.0 | 9.0 | 0.00 | 0.00 | 0.00 | 30 | 1004.4 |
| 20260504193431 | 70 | 181 | 3.0 | 9.0 | 0.00 | 0.00 | 0.00 | 30 | 1004.4 |
| 20260504193155 | 71 | 199 | 4.0 | 11.0 | 0.00 | 0.00 | 0.00 | 29 | 1004.4 |
| 20260504192653 | 71 | 310 | 4.0 | 13.0 | 0.00 | 0.00 | 0.00 | 30 | 1004.5 |
| 20260504191929 | 71 | 170 | 4.0 | 13.0 | 0.00 | 0.00 | 0.00 | 29 | 1004.4 |
| 20260504191428 | 71 | 176 | 4.0 | 13.0 | 0.00 | 0.00 | 0.00 | 29 | 1004.4 |
| 20260504190929 | 71 | 334 | 4.0 | 13.0 | 0.00 | 0.00 | 0.00 | 29 | 1004.5 |
| 20260504190429 | 71 | 244 | 4.0 | 11.0 | 0.00 | 0.00 | 0.00 | 30 | 1004.5 |
| 20260504185927 | 71 | 167 | 4.0 | 11.0 | 0.00 | 0.00 | 0.00 | 29 | 1004.6 |
| 20260504185426 | 70 | 260 | 4.0 | 9.0 | 0.00 | 0.00 | 0.00 | 29 | 1004.6 |
| 20260504184927 | 70 | 248 | 4.0 | 10.0 | 0.00 | 0.00 | 0.00 | 30 | 1004.6 |
| 20260504184427 | 70 | 267 | 4.0 | 12.0 | 0.00 | 0.00 | 0.00 | 30 | 1004.7 |
| 20260504183927 | 70 | 290 | 4.0 | 12.0 | 0.00 | 0.00 | 0.00 | 30 | 1004.7 |
| 20260504183426 | 69 | 157 | 4.0 | 10.0 | 0.00 | 0.00 | 0.00 | 30 | 1004.7 |
| 20260504183406 | 69 | 243 | 5.0 | 11.0 | 0.00 | 0.00 | 0.00 | 30 | 1004.7 |
| 20260504182427 | 69 | 293 | 4.0 | 11.0 | 0.00 | 0.00 | 0.00 | 29 | 1004.6 |
| 20260504181927 | 70 | 321 | 3.0 | 11.0 | 0.00 | 0.00 | 0.00 | 29 | 1004.6 |
| 20260504181427 | 70 | 268 | 4.0 | 13.0 | 0.00 | 0.00 | 0.00 | 30 | 1004.8 |
| 20260504180926 | 70 | 211 | 5.0 | 13.0 | 0.00 | 0.00 | 0.00 | 30 | 1004.8 |
| 20260504180426 | 71 | 185 | 4.0 | 12.0 | 0.00 | 0.00 | 0.00 | 31 | 1004.6 |
| 20260504175927 | 71 | 164 | 5.0 | 12.0 | 0.00 | 0.00 | 0.00 | 30 | 1004.7 |
| 20260504175427 | 70 | 336 | 4.0 | 10.0 | 0.00 | 0.00 | 0.00 | 30 | 1004.8 |
| 20260504174927 | 70 | 211 | 4.0 | 10.0 | 0.00 | 0.00 | 0.00 | 30 | 1004.8 |
| 20260504174428 | 70 | 191 | 4.0 | 12.0 | 0.00 | 0.00 | 0.00 | 31 | 1004.8 |
| 20260504173928 | 70 | 161 | 5.0 | 14.0 | 0.00 | 0.00 | 0.00 | 30 | 1004.8 |
| 20260504173427 | 70 | 277 | 5.0 | 17.0 | 0.00 | 0.00 | 0.00 | 30 | 1004.9 |
| 20260504172924 | 69 | 166 | 5.0 | 17.0 | 0.00 | 0.00 | 0.00 | 32 | 1004.9 |
| 20260504172425 | 70 | 342 | 5.0 | 16.0 | 0.00 | 0.00 | 0.00 | 30 | 1005.0 |
| 20260504171925 | 69 | 157 | 5.0 | 16.0 | 0.00 | 0.00 | 0.00 | 32 | 1005.0 |
| 20260504171424 | 69 | 265 | 5.0 | 14.0 | 0.00 | 0.00 | 0.00 | 32 | 1005.0 |
| 20260504170924 | 69 | 187 | 5.0 | 14.0 | 0.00 | 0.00 | 0.00 | 32 | 1005.0 |
| 20260504170425 | 69 | 175 | 5.0 | 14.0 | 0.00 | 0.00 | 0.00 | 31 | 1005.1 |
| 20260504160420 | 67 | 285 | 4.0 | 10.0 | 0.00 | 0.00 | 0.00 | 35 | 1005.6 |
| 20260504150915 | 64 | 8 | 4.0 | 10.0 | 0.00 | 0.00 | 0.00 | 38 | 1006.2 |
| 20260504150415 | 64 | 258 | 4.0 | 9.0 | 0.00 | 0.00 | 0.00 | 37 | 1006.4 |
| 20260504140913 | 61 | 295 | 3.0 | 12.0 | 0.00 | 0.00 | 0.00 | 43 | 1007.2 |
| 20260504140849 | 61 | 333 | 3.0 | 14.0 | 0.00 | 0.00 | 0.00 | 43 | 1007.2 |
| 20260504140135 | 60 | 346 | 4.0 | 14.0 | 0.00 | 0.00 | 0.00 | 44 | 1007.3 |
| 20260504130408 | 55 | 225 | 2.0 | 7.0 | 0.00 | 0.00 | 0.00 | 50 | 1008.0 |
| 20260504130130 | 55 | 155 | 2.0 | 7.0 | 0.00 | 0.00 | 0.00 | 50 | 1008.0 |
| 20260504110402 | 43 | 325 | 2.0 | 4.0 | 0.00 | 0.00 | 0.00 | 74 | 1009.0 |
| 20260504110123 | 43 | 325 | 1.0 | 2.0 | 0.00 | 0.00 | 0.00 | 76 | 1009.0 |
| 20260504100402 | 41 | 337 | 1.0 | 2.0 | 0.00 | 0.00 | 0.00 | 77 | 1008.8 |
| 20260504090120 | 43 | 327 | 1.0 | 2.0 | 0.00 | 0.00 | 0.00 | 72 | 1008.8 |
| 20260504081402 | 42 | 143 | 2.0 | 5.0 | 0.00 | 0.00 | 0.00 | 71 | 1008.8 |
| 20260504080902 | 42 | 324 | 2.0 | 5.0 | 0.00 | 0.00 | 0.00 | 72 | 1008.7 |
| 20260504080401 | 42 | 320 | 2.0 | 4.0 | 0.00 | 0.00 | 0.00 | 71 | 1008.8 |
| 20260504070355 | 40 | 319 | 2.0 | 4.0 | 0.00 | 0.00 | 0.00 | 76 | 1008.6 |
| 20260504050348 | 35 | 185 | 2.0 | 4.0 | 0.00 | 0.00 | 0.00 | 82 | 1008.7 |
| 20260504045849 | 35 | 339 | 1.0 | 2.0 | 0.00 | 0.00 | 0.00 | 84 | 1008.7 |
| 20260504045346 | 35 | 306 | 1.0 | 2.0 | 0.00 | 0.00 | 0.00 | 84 | 1008.7 |
| 20260504044842 | 36 | 269 | 1.0 | 2.0 | 0.00 | 0.00 | 0.00 | 84 | 1008.7 |
| 20260504044340 | 36 | 329 | 2.0 | 3.0 | 0.00 | 0.00 | 0.00 | 84 | 1008.7 |
| 20260504043841 | 36 | 263 | 2.0 | 3.0 | 0.00 | 0.00 | 0.00 | 84 | 1008.7 |
| 20260504043608 | 36 | 328 | 2.0 | 3.0 | 0.00 | 0.00 | 0.00 | 83 | 1008.7 |
| 20260504042841 | 36 | 329 | 2.0 | 3.0 | 0.00 | 0.00 | 0.00 | 83 | 1008.7 |
| 20260504042341 | 37 | 325 | 2.0 | 3.0 | 0.00 | 0.00 | 0.00 | 83 | 1008.7 |
| 20260504041841 | 37 | 197 | 2.0 | 3.0 | 0.00 | 0.00 | 0.00 | 81 | 1008.7 |
| 20260504041341 | 37 | 268 | 2.0 | 4.0 | 0.00 | 0.00 | 0.00 | 82 | 1008.7 |
| 20260504040841 | 37 | 253 | 2.0 | 4.0 | 0.00 | 0.00 | 0.00 | 78 | 1008.6 |
| 20260504040341 | 37 | 199 | 2.0 | 3.0 | 0.00 | 0.00 | 0.00 | 80 | 1008.6 |
| 20260504035841 | 38 | 271 | 2.0 | 3.0 | 0.00 | 0.00 | 0.00 | 80 | 1008.6 |
| 20260504035341 | 38 | 229 | 3.0 | 4.0 | 0.00 | 0.00 | 0.00 | 79 | 1008.5 |
| 20260504034838 | 38 | 335 | 3.0 | 4.0 | 0.00 | 0.00 | 0.00 | 78 | 1008.5 |
| 20260504034338 | 38 | 69 | 3.0 | 4.0 | 0.00 | 0.00 | 0.00 | 79 | 1008.5 |
| 20260504033838 | 38 | 358 | 3.0 | 4.0 | 0.00 | 0.00 | 0.00 | 78 | 1008.5 |
| 20260504033337 | 37 | 352 | 2.0 | 4.0 | 0.00 | 0.00 | 0.00 | 80 | 1008.5 |
| 20260504033101 | 37 | 337 | 2.0 | 4.0 | 0.00 | 0.00 | 0.00 | 82 | 1008.4 |
| 20260504032338 | 38 | 324 | 2.0 | 4.0 | 0.00 | 0.00 | 0.00 | 83 | 1008.3 |
| 20260504031838 | 38 | 270 | 2.0 | 4.0 | 0.00 | 0.00 | 0.00 | 81 | 1008.3 |
| 20260504031338 | 38 | 273 | 2.0 | 3.0 | 0.00 | 0.00 | 0.00 | 79 | 1008.3 |
| 20260504030838 | 38 | 310 | 2.0 | 4.0 | 0.00 | 0.00 | 0.00 | 78 | 1008.2 |
| 20260504030338 | 38 | 324 | 2.0 | 4.0 | 0.00 | 0.00 | 0.00 | 80 | 1008.3 |
| 20260504025838 | 38 | 336 | 2.0 | 4.0 | 0.00 | 0.00 | 0.00 | 81 | 1008.3 |
| 20260504025339 | 38 | 279 | 2.0 | 4.0 | 0.00 | 0.00 | 0.00 | 80 | 1008.3 |
| 20260504024839 | 38 | 253 | 2.0 | 3.0 | 0.00 | 0.00 | 0.00 | 79 | 1008.3 |
| 20260504024335 | 39 | 314 | 2.0 | 4.0 | 0.00 | 0.00 | 0.00 | 78 | 1008.2 |
| 20260504023835 | 39 | 315 | 2.0 | 4.0 | 0.00 | 0.00 | 0.00 | 78 | 1008.3 |
| 20260504023336 | 39 | 291 | 3.0 | 4.0 | 0.00 | 0.00 | 0.00 | 76 | 1008.3 |
| 20260504022836 | 39 | 305 | 3.0 | 4.0 | 0.00 | 0.00 | 0.00 | 78 | 1008.3 |
| 20260504022336 | 39 | 324 | 3.0 | 4.0 | 0.00 | 0.00 | 0.00 | 78 | 1008.2 |
| 20260504021836 | 39 | 324 | 2.0 | 4.0 | 0.00 | 0.00 | 0.00 | 78 | 1008.2 |
| 20260504021823 | 39 | 330 | 2.0 | 6.0 | 0.00 | 0.00 | 0.00 | 77 | 1008.2 |
| 20260504020836 | 39 | 334 | 3.0 | 6.0 | 0.00 | 0.00 | 0.00 | 78 | 1008.2 |
| 20260504020337 | 39 | 320 | 2.0 | 4.0 | 0.00 | 0.00 | 0.00 | 76 | 1008.2 |
| 20260504020057 | 40 | 187 | 3.0 | 4.0 | 0.00 | 0.00 | 0.00 | 75 | 1008.2 |
| 20260504015558 | 40 | 329 | 3.0 | 4.0 | 0.00 | 0.00 | 0.00 | 74 | 1008.1 |
| 20260504014836 | 40 | 285 | 2.0 | 4.0 | 0.00 | 0.00 | 0.00 | 73 | 1008.1 |
| 20260504014337 | 40 | 344 | 2.0 | 3.0 | 0.00 | 0.00 | 0.00 | 74 | 1008.1 |
| 20260504013834 | 40 | 336 | 2.0 | 4.0 | 0.00 | 0.00 | 0.00 | 71 | 1008.1 |
| 20260504013333 | 40 | 294 | 2.0 | 4.0 | 0.00 | 0.00 | 0.00 | 72 | 1008.0 |
| 20260504012833 | 40 | 321 | 2.0 | 4.0 | 0.00 | 0.00 | 0.00 | 73 | 1008.0 |
| 20260504012819 | 41 | 328 | 2.0 | 3.0 | 0.00 | 0.00 | 0.00 | 73 | 1008.0 |
| 20260504011834 | 41 | 329 | 2.0 | 3.0 | 0.00 | 0.00 | 0.00 | 73 | 1008.0 |
| 20260504011556 | 41 | 328 | 2.0 | 3.0 | 0.00 | 0.00 | 0.00 | 71 | 1007.9 |
| 20260504010834 | 42 | 326 | 1.0 | 3.0 | 0.00 | 0.00 | 0.00 | 69 | 1007.9 |
| 20260504010334 | 42 | 330 | 2.0 | 3.0 | 0.00 | 0.00 | 0.00 | 68 | 1007.8 |
| 20260504005835 | 42 | 326 | 2.0 | 3.0 | 0.00 | 0.00 | 0.00 | 68 | 1007.8 |